Witamy w enduhub !

enduhub
enduhub [\indu'hab, en-\].
endurance [\in-ˈdu̇r-ən(t)s, -ˈdyu̇r-, en-\] : zdolność do długotrwałego wykonywania czynności powszechnie uważanej za trudną.
hub [\ˈhəb\] : centralne i najbardziej aktywne miejsce lub element.

Szukasz wyników po różnych stronach ?

Znajdź swoje wyniki, sprawdź znajomych.

http://enduhub.com to wyszukiwarka wyników zawodów sportowych.Znajdziesz u nas wyniki biegów, triathlonu,kolarstwa,pływania i innych.


Szukasz wyników po różnych stronach ?

Zarejestruj teraz ! Dlaczego warto ?

  • Możesz dodawać wyniki do swojej prywatnej listy.
  • Możesz sprawdzić swój poziom na tle rówieśników - Enduhub Performace Index.
  • Możesz zgłaszać wyniki do załadowania - Zgłoś wyniki.
  • Możesz planować wynik i starty w kalendarzu - Planuj.
  • Możesz założyć drużynę i zaprosić znajomych - Zespoły.
  • Stay tuned ..... !

Monte Kazury #2

Wyniki - 16 maja 2017, Warszawa

Greatman 2017

Msc
Nr
-
#1 1 miejsce i złoty medal. Gratulacje !1174Łukasz BaranowAlbatrosy00:21:501
#2 2 miejsce i srebrny medal. Gratulacje !2329Marek DzięgielewskiKB im.P.Sękowskiego w Płońsku00:21:592
#3 3rd place and bronze medal. Congratulations ! 3247Paweł BiałySKB Kraśnik00:22:163
#4 4271Mateusz Baran00:22:284
#5 5343Piotr BętkowskiCity Trail TEAM00:22:455
#6 691Ilya MarchukUNTS Warszawa/Inov-800:23:006
#7 72Krzysztof Dołęgowskiinov-800:23:067
#8 8321Wawrzyniec Pawski00:23:388
#9 9252Andrzej MiedziejewskiAbsolute Bike Team00:23:559
#10 10375Jacek KwiecińskiWejcherowo 4219500:24:2510
#11 11367Bartek FalkowskiBartek Trenuje Team00:24:3111
#12 1284Michał Drozd00:24:3412
#13 13187Szymon MolędysKONTROLERSKI TEAM00:24:3813
#14 14148Jacek GardenerJacekBiega Running Team00:24:5114
#15 15299Piotr KobierskiUKA.pl00:25:0115
#16 16286Przemysław ChmielAlbatrosy00:25:0516
#17 17354Tomasz OcickiThe Army of Jesus00:25:1317
#18 18279Aleksander BadowskiAKS Polonia Warszawa00:25:2018
#19 19305Grzegorz ChojnackiHusaria Race Team00:25:2119
#20 2044Mikołaj Kowalski-BarysznikowKINGRUNNER.com00:25:2220
#21 21256Michał Nowakowskiusytasy00:25:2721
#22 1 miejsce i złoty medal. Gratulacje !2289Viyaleta PiatrouskayaInov-8 Team00:25:331
#23 23234Mateusz Jasińskitrenerbiegania.pl00:25:3422
#24 2 miejsce i srebrny medal. Gratulacje !24344Martyna Wiśniewskaadidas Runners Warsaw00:25:432
#25 254Kamil ŻurawskiPiwowar00:25:5823
#26 26111Piotr DąbrowskiSBBP-Łosie00:26:0124
#27 27107Oskar KapalaAKS Polonia Warszawa00:26:0725
#28 28370Błażej WiatrowskiAllianz Running Team00:26:1726
#29 296Łazarz KapaonCazzo Club00:26:2227
#30 30272Szymon Zięborak00:26:2528
#31 31277Radosław PłazaDream Run00:26:2729
#32 32110Błażej GrabowskiJacekBiega Runnig Team00:26:2930
#33 33121Gaweł Bogutanapieraj.pl00:26:3131
#34 34245Jacek Moćko00:26:3432
#35 35381Andrzej BaranowskiTriWawa00:26:3733
#36 36280Marcin GórnickiGO Sport AK Sped Team00:26:3834
#37 3782Bogdan SnarskiAlbatrosy00:26:5035
#38 38248Kamil WernerBiegam Na Tarchominie00:26:5436
#39 39347Krystian StefanskiKB ERGO00:26:5837
#40 40290Tomek Główkabiegówki wesoła00:26:5938
#41 4112Rafał BorowskiParkrun Ursynów00:27:0239
#42 4286Marcin SzypowskiKoszalin00:27:0740
#43 43244Adam Banaszekbiegusiem.pl00:27:0941
#44 44320Paweł MuniakADIDAS RUNNERS WARSAW00:27:2142
#45 45255Antoni Hubner00:27:2443
#46 4677Krzysztof Rupiński00:27:3044
#47 47310Tomasz Sęk00:27:4745
#48 3rd place and bronze medal. Congratulations ! 48145Sylwia BondaraJacekBiega Running Team00:27:473
#49 49150Jacek BaranowskiJacekBiega Running Team00:27:4946
#50 50171Marcin KaczorowskiAvengers00:27:5847
#51 5140Rafał GrzeszakDOGOŃ Grodzisk Mazowiecki00:28:0548
#52 52314Mariusz Wrona00:28:0949
#53 53349Przemysław PrzedpełskiParkrun Ursynów00:28:1050
#54 5462Krzysztof KwaśniewskiŻywcem Zabiegani00:28:1951
#55 55253Piotr StawińskiOSM Pościsze00:28:2252
#56 56356James Artur KamińskiSunday Sweaty Sunday00:28:3353
#57 57312Mateusz HemkaAGISKO POLSKA00:28:3454
#58 58303Marcin ŚwiderekParkrun Skierniewice00:28:3655
#59 59360Krzysztof Czajka00:28:4056
#60 60237Przemysław Śmiertka00:28:4557
#61 61190Karolina LewandowskaDREAM RUN00:28:464
#62 62109Robert Kucharski00:28:4658
#63 63284Bartosz StrojekKuźnia Triathlonu00:28:5459
#64 64170Leszek BajdowskiŻywcem Zabiegani00:28:5560
#65 65353Michał Wiśniewski00:28:5561
#66 66137Francesco BertinoCazzo Club00:28:5762
#67 67258Rafał Rzeszutko00:28:5863
#68 68204Mariusz Bartosiński00:28:5864
#69 69318Michał GacaPZU SPORT TEAM00:29:0165
#70 7124Paweł KacprzykBiegam na Tarchominie00:29:0366
#71 72376Piotr Gałka00:29:0767
#72 73183Dominik Mikiewicz00:29:1168
#73 74358Piotr Urbala00:29:1469
#74 75218Krzysztof PółtorakMiśki00:29:1970
#75 76225Tomasz CieplińskineON00:29:2371
#76 77287Remigiusz Jendrych00:29:2472
#77 78285Paweł Luliński00:29:2673
#78 79175Jakub Jadziewicz00:29:2974
#79 8049Daniel Maćkowski00:29:3475
#80 8178Roland AntolakWarszawski Ultras00:29:3776
#81 82135Ewa Machul00:29:395
#82 83180Andrzej KmiećTurbo Pruszków Stonogi Milanówek00:29:4377
#83 84377Alicja PaszczakKlub Wysokogórski00:29:456
#84 85363Adam ModrzejewskiKW Warszawa00:29:4778
#85 86269Tomasz Wiktorowicz00:29:5379
#86 87231Michał Chodniewicz00:29:5380
#87 88142Małgorzata RadkowskaDziobaki i Nosiaki00:29:597
#88 89351Rafał KulczyńskiPGE Narodowy00:30:0281
#89 90132Jakub PlocienniczakDream Run00:30:0282
#90 91309Bartosz Bigajczyk00:30:1083
#91 92307Michał Strzeleckiobozybiegowe.pl / PZSF00:30:1384
#92 93199Mikołaj GronieckiJacekBiega Running Team00:30:1985
#93 94224Patrycja DettlaffDream Run00:30:258
#94 95274Piotr BiałeckiOrange Polska00:30:3286
#95 9690Oskar BerezowskiSolgar Polska00:30:3487
#96 97200Tomasz MichałowskiInov-8 Team00:30:3588
#97 98115Paweł TerczyńskiIBM Polska00:30:3689
#98 99297Robert Szewczyk00:30:3890
#99 10036Michał WojewodaTriWawa / Run the Park00:30:4091
#100 101289Mariusz RajzerBodyKinetic00:30:4292

Google Play

wyniki sporty wytrzymałośćiowe, bieganie, kolarstwo, MTB, triatlon, pływanie, duathlon, maraton, multisport poznanbiega.pl http://citytrail.pl http://www.cityzenklub.pl http://12tri.pl ligabiegowa.pl zawody & wyniki w jednym miejscu

Ta strona używa Cookies. Dowiedz się więcej o celu ich używania - przeczytaj naszą politykę prywatności.Korzystając ze strony wyrażasz zgodę na używanie cookie, zgodnie z aktualnymi ustawieniami przeglądarki.

enduhub.com jest thebeściak więc się zgadzam ! Polityka prywatności